Location: Saluda
(35.2377°N, 82.3468°W)
Time: 00:12:08
(UTC+00:00)

Tiangong - Visible Passes

Search period start: 13 August 2022 00:00
Search period end: 23 August 2022 00:00
Orbit: 380 x 386 km, 41.5° (Epoch: 12 August)

Date Brightness Start Highest point End Pass type
(mag) Time Alt. Az. Time Alt. Az. Time Alt. Az.
14 Aug 0.1 02:11:12 10° SW 02:12:08 18° SW 02:12:08 18° SW visible
15 Aug -1.3 01:11:52 10° SSW 01:14:41 31° SSE 01:16:22 19° E visible
15 Aug 1.1 02:48:26 10° W 02:48:38 11° W 02:48:38 11° W visible
16 Aug -2.0 01:48:48 10° WSW 01:51:55 72° NNW 01:52:42 46° NE visible
17 Aug -2.1 00:49:31 10° SW 00:52:37 63° SSE 00:55:44 10° ENE visible
17 Aug -0.1 02:26:46 10° WNW 02:28:54 28° NW 02:28:54 28° NW visible
18 Aug -1.1 01:27:23 10° W 01:30:23 43° NNW 01:32:50 14° NE visible
18 Aug 1.5 03:05:02 10° WNW 03:05:06 10° WNW 03:05:06 10° WNW visible
19 Aug -0.3 02:05:53 10° WNW 02:08:36 26° N 02:09:02 25° N visible
20 Aug -0.5 01:06:50 10° WNW 01:09:41 31° NNW 01:12:32 10° NE visible
20 Aug 1.0 02:44:23 10° NW 02:45:18 16° NW 02:45:18 16° NW visible
21 Aug -0.2 01:45:42 10° WNW 01:48:21 24° N 01:49:25 20° NNE visible
22 Aug -0.2 00:47:05 10° WNW 00:49:48 26° N 00:52:30 10° NE visible
22 Aug 0.3 02:24:21 10° NW 02:25:56 23° NNW 02:25:56 23° NNW visible
